Location: Unspecified
(0.0000°N, 0.0000°E)
Time: 01:29:33
(UTC+00:00)

SO-50 - Pass Details

Date: 09 December 2017
Orbit: 597 x 690 km, 64.6° (Epoch: 23 June)

Event Time Altitude Azimuth Distance (km) Brightness Sun altitude
Exits shadow 04:36:11 14° 239° (WSW) 1,887 ? -17.5°
Drops below altitude 10° 04:38:06 10° 216° (SW) 2,138 ? -17.0°
Sets 04:41:33 0° 191° (S) 3,057 ? -16.3°
